Weather in Novy Sharoy

Russia / Chechen Republic     43°15′09″N   45°16′09″E
temp.,
°C
wind,
m/s
gust,
m/s
humid.,
%
clouds,
%
prec.,
mm/h
press.,
hPa
HPBL,
m
18 may, tue
tue1800:00+16w51187100 0.4 1007304
03:00+16w61191100 2.2 1008587
06:00+16wnw51090100 0.1 1011511
09:00+17wnw588080 0.6 1012694
12:00+19wnw446771 0.1 10131068
15:00+21w11645 0.6 1012859
18:00+21ene01675 0.0 1012364
21:00+15s11832 0.0 101313
19 may, wed
wed1900:00+14sw11870 0.0 101211
03:00+13sse11880 0.0 101010
06:00+15se12780 0.0 101090
09:00+21e356177 0.0 1008709
12:00+24nnw22491 0.0 10091198
15:00+24nw5556100 0.2 10111368
18:00+15wnw61093100 2.4 1016516
21:00+14wsw1395100 5.4 1018141
20 may, thu
thu2000:00+14sw1192100 0.3 101819
03:00+14sse119061 0.3 101815
06:00+14e24896 0.0 1018142
09:00+19e56540 0.0 10181208
12:00+22e56453 0.0 10161408
15:00+23e56455 0.0 10151343
18:00+20e58580 0.0 1016300
21:00+13se12690 0.0 101611
21 may, fri
fri2100:00+12wnw11760 0.0 101610
03:00+11sw11800 0.0 101610
06:00+14ese01750 0.0 101554
09:00+20ene22600 0.0 1014426
12:00+26ene23480 0.0 1013845
15:00+29ene34410 0.0 10121160
18:00+22ne47610 0.0 1013194
21:00+15wnw11720 0.0 101411
22 may, sat
sat2200:00+14nw01760 0.0 101311
03:00+14wnw11790 0.0 101310
06:00+16e01744 0.0 101353
09:00+22ene22583 0.0 1012415
12:00+27ene33460 0.0 1011833
15:00+31ene34370 0.0 10091162
18:00+24ne36561 0.0 1009142
21:00+17wnw22621 0.0 101013